Location: Cluj-Napoca
(46.7712°N, 23.6236°E)
Time: 07:02:37
(UTC+03:00)

ISS - Pass Details

Date: 02 April 2020
Orbit: 417 x 423 km, 51.6° (Epoch: 29 March)

Event Time Altitude Azimuth Distance (km) Brightness Sun altitude
Rises 21:12:23 0° 295° (WNW) 2,362 2.1 -13.3°
Reaches altitude 10° 21:14:29 10° 293° (WNW) 1,497 0.5 -13.6°
Maximum altitude 21:17:49 67° 211° (SSW) 456 -3.6 -14.2°
Enters shadow 21:19:23 29° 135° (SE) 804 -2.9 -14.4°
